Regional Weather Roundup
Issued by NWS Charleston, SC

Current Version | Previous Version | Graphics & Text | Print | Product List | Glossary On
Versions: 1 2 3 4 5 6 7 8 9 10 11 12 13 14 15 16 17 18 19 20 21 22 23 24 25 26 27 28 29 30 31 32 33 34 35 36 37 38 39 40 41 42 43 44 45 46 47 48 49 50
000
ASUS42 KCHS 222125
RWRCHS

REGIONAL WEATHER ROUNDUP
NATIONAL WEATHER SERVICE CHARLESTON SC
500 PM EDT FRI AUG 22 2014

NOTE: "FAIR" INDICATES FEW OR NO CLOUDS BELOW 12,000 FEET WITH NO
SIGNIFICANT WEATHER AND/OR OBSTRUCTIONS TO VISIBILITY.

NOT ALL STATIONS ARE QUALITY CONTROLLED BY THE NATIONAL
WEATHER SERVICE. USE DATA WITH CAUTION...ESPECIALLY
DEWPOINT OBSERVATIONS.

SCZ027-030-031-034>040-042>050-222200-
...SOUTH CAROLINA...

CITY           SKY/WX    TMP DP  RH WIND       PRES   REMARKS
N CHARLESTON   MOSUNNY   98  71  41 W7        29.95F HX 106
WATERFRONT PRK   N/A     91 N/A N/A S10         N/A
FORT JOHNSON   NOT AVBL
MOUNT PLEASANT FAIR      93  79  62 S9        29.95S HX 110
JOHNS ISLAND   CLEAR     93  81  66 S9        29.96S HX 113
PINOPOLIS        N/A     97  73  46 NE3       29.86F HX 107
MONCKS CORNER    N/A     93  81  66 NE3       29.95F HX 113
SUMMERVILLE    FAIR      99  72  41 SW3       29.95F HX 107
BEAUFORT MCAS  PTSUNNY   99  68  36 N8        29.96F HX 104
BEAUFORT ARPT  MOCLDY    95  77  55 S6        29.95S HX 109
HILTON HEAD IS MOSUNNY   93  81  66 S6        29.98  HX 113
GEORGETOWN     NOT AVBL
WALTERBORO     PTCLDY    99  61  28 W6        29.95F HX  99
ORANGEBURG     MOSUNNY   97  66  36 N9        29.95F HX 100
BARNWELL       FAIR      99  66  34 W8        29.96F HX 102
AIKEN          FAIR      97  70  41 NW9       30.01S HX 103
MANNING        FAIR      97  68  38 W3        29.94F HX 101
KINGSTREE      NOT AVBL
COLUMBIA       MOSUNNY   99  63  30 NW7       29.95F HX 101
SUMTER         SUNNY     98  65  34 NW7       29.94F HX 101
FLORENCE       MOSUNNY   97  66  36 W7        29.93F HX 100
MYRTLE BEACH   MOSUNNY   91  73  55 S12       29.94F HX 100
N MYRTLE BEACH SUNNY     88  79  74 S12       29.95F HX 103

$$

GAZ063-065-086>088-099>101-113>116-118-119-134-136>141-150-222200-
...GEORGIA...

CITY           SKY/WX    TMP DP  RH WIND       PRES   REMARKS
SAVANNAH ARPT  MOSUNNY   99  68  36 NW8       29.96F HX 104
HUNTER AAF     SUNNY     99  70  39 W9        29.94F HX 106
FORT STEWART   SUNNY    100  68  34 W10       29.95F HX 106
STATESBORO     NOT AVBL
SYLVANIA       CLEAR     98  74  46 NW7       29.97F HX 109
CLAXTON        FAIR      99  72  41 CALM      29.96F HX 107
THOMSON        MOSUNNY   98  75  46 W5        30.02F HX 110
AUGUSTA-BUSH   MOSUNNY   99  68  36 NW9       29.95F HX 104
AUGUSTA-DANIEL MOSUNNY   98  67  36 NW5       29.98F HX 102
SWAINSBORO     FAIR     100  70  37 N8        29.98F HX 107
VIDALIA          N/A     97  70  41 NW7       29.97F HX 103
ALMA           SUNNY     97  70  41 W7        29.98F HX 103
WAYCROSS       SUNNY    100  72  40 N7        29.97F HX 110
JESUP            N/A    100  72  39 NW7       29.96F HX 109
BRUNSWICK      MOSUNNY   97  70  41 CALM      29.98F HX 103
SAINT SIMONS   MOSUNNY   92  78  63 SE8       29.98F HX 107

$$

SCZ027-028-034-036>038-045-046-048>050-GAZ119-141-222200-
...LAKE AND SUPPLEMENTAL COASTAL OBSERVATIONS...

STATION/POSITION TIME  TEMP    WIND        PRES    WAVE   SWELL
                       AIR SEA DIR/SP/G            HT/PER HT/PER/DIR
                 (UTC) (F)     (DEG/KT/KT) (MB)    (FT/S) (FT/S/D)
UPR LAKE MARION  NOT AVBL
WINYAH BAY       2100   93     190/  9     1014.0S
LAKE MURRAY      2100   94     170/  5/  6 1013.9S
ACE BASIN NERRS  2100   96        CALM     1015.0S
FORT PULASKI     2100   92     150/  7/ 11 1014.8F
SAPELO ISLAND    2100   92     150/  6     1016.0S

$$

ANZ835-935-AMZ111-154-330-350-352-354-374-450-454-472-222200-
...C-MAN AND BUOY OBSERVATIONS...

STATION/POSITION TIME  TEMP    WIND        PRES    WAVE   SWELL
                       AIR SEA DIR/SP/G            HT/PER HT/PER/DIR
                 (UTC) (F)     (DEG/KT/KT) (MB)    (FT/S) (FT/S/D)
FOLLY BEACH CMAN 2100   88     200/ 13/ 14 1014.9F
BUOY 41004       2100   86 86  200/ 10/ 12 1014.3F   1/ 9   2/ 9
BUOY 41008       2100   87 87  190/  8/  8 1015.1F   1/10   2/100/10
5E ST. MARYS GA  2100      85                N/A     1/10
FRYING PAN BUOY  NOT AVBL
BUOY 41025       2100   83     280/ 10/ 14 1013.2F   2/ 8   2/ 50/ 8
CAPE LOOKOUT NC  2100   86     250/  7/ 11 1013.4F
BUOY 41002       1954   83 83  260/ 12/ 16 1015.9    2/ 4   2/130/ 9
BUOY 41010       2100   85 87  180/  4/  6 1016.9F   2/ 9   2/ 80/ 9
BUOY 41012       NOT AVBL
ST AUGUSTINE FL  2100   82     170/  7/  7 1016.5F
CAPERS NEARSHORE 2000   89     200/ 14/ 16   N/A
FRIPP NEARSHORE  NOT AVBL


$$


USA.gov is the U.S. government's official web portal to all federal, state and local government web resources and services.